Date String (YYYY-MM-DD hh:mm:ss) UTC,Instrument flags,Ambient pressure (hPa),Sample flow (lpm),Bypass flow (lpm),Sample temperature (°C),Ambient temperature (°C),ASC tube jacket temperature (°C),LED temperature (°C),Box temperature (°C),Sample RH (%),Span deviation,Mass concentration (μg/m³),Mass concentration (μg/m³),Mass concentration (μg/m³)
DateTimeUTC,F1_M11,P_M11,Q1_M11,Q2_M11,T1_M11,T2_M11,T3_M11,T4_M11,T5_M11,U1_M11,ZSPAN_M11,X0_M11,X2_M11,X1_M11
2022-08-01 11:00:00,,0829.1,4.99,0.00,29.8,28.6,00.0,38.6,31.7,25.7,0000.0,0009.70,0005.99,0005.55
2022-08-01 11:01:00,,0829.1,5.00,0.00,29.8,28.6,00.0,38.6,31.7,25.6,0000.0,0009.59,0005.98,0005.56
2022-08-01 11:02:00,,0829.1,5.01,0.00,29.8,28.7,00.0,38.6,31.7,25.5,0000.0,0010.06,0005.98,0005.56
2022-08-01 11:03:00,,0829.1,5.00,0.00,29.8,28.7,00.0,38.6,31.7,25.3,0000.0,0010.21,0006.00,0005.56
2022-08-01 11:04:00,,0829.1,5.00,0.00,29.8,28.7,00.0,38.6,31.8,24.9,0000.0,0010.07,0006.00,0005.58
2022-08-01 11:05:00,,0829.2,5.01,0.00,29.8,28.8,00.0,38.6,31.7,24.9,0000.0,0010.04,0006.01,0005.59
2022-08-01 11:06:00,,0829.2,5.00,0.00,29.8,28.8,00.0,38.6,31.8,24.7,0000.0,0009.84,0005.99,0005.60
2022-08-01 11:07:00,,0829.3,5.00,0.00,29.9,28.8,00.0,38.6,31.8,24.7,0000.0,0010.17,0005.99,0005.60
2022-08-01 11:08:00,,0829.2,5.00,0.00,29.9,28.8,00.0,38.7,31.8,24.7,0000.0,0010.56,0005.98,0005.59
2022-08-01 11:09:00,,0829.2,5.00,0.00,29.9,28.9,00.0,38.7,31.9,24.7,0000.0,0010.49,0005.94,0005.57
2022-08-01 11:10:00,,0829.2,5.00,0.00,29.9,28.9,00.0,38.7,31.9,24.3,0000.0,0010.44,0005.91,0005.56
2022-08-01 11:11:00,,0829.2,4.98,0.00,29.9,28.9,00.0,38.7,31.9,24.3,0000.0,0010.49,0005.91,0005.56
2022-08-01 11:12:00,,0829.2,5.00,0.00,29.9,28.9,00.0,38.7,31.9,24.2,0000.0,0010.69,0005.94,0005.56
2022-08-01 11:13:00,,0829.2,4.99,0.00,30.0,29.0,00.0,38.7,31.9,24.1,0000.0,0010.25,0005.93,0005.55
2022-08-01 11:14:00,,0829.2,5.01,0.00,30.0,29.0,00.0,38.7,31.9,24.0,0000.0,0010.04,0005.95,0005.56
2022-08-01 11:15:00,,0829.2,5.01,0.00,30.0,29.0,00.0,38.7,32.0,24.0,0000.0,0009.94,0005.95,0005.56
2022-08-01 11:16:00,,0829.2,4.99,0.00,30.0,29.0,00.0,38.8,32.0,23.9,0000.0,0009.49,0005.98,0005.56
2022-08-01 11:17:00,,0829.2,5.01,0.00,30.0,29.1,00.0,38.8,32.0,24.1,0000.0,0009.62,0006.01,0005.56
2022-08-01 11:18:00,,0829.2,5.01,0.00,30.1,29.0,00.0,38.8,32.0,24.1,0000.0,0009.27,0006.01,0005.56
2022-08-01 11:19:00,,0829.2,5.00,0.00,30.0,28.3,00.0,38.8,31.8,24.2,0000.0,0008.85,0006.01,0005.57
2022-08-01 11:20:00,,0829.2,4.99,0.00,30.0,27.7,00.0,38.7,31.7,24.3,0000.0,0008.81,0005.99,0005.57
2022-08-01 11:21:00,,0829.3,5.01,0.00,29.9,27.6,00.0,38.7,31.5,24.3,0000.0,0009.01,0005.98,0005.57
2022-08-01 11:22:00,,0829.2,5.00,0.00,29.8,27.6,00.0,38.7,31.5,24.4,0000.0,0008.98,0005.96,0005.57
2022-08-01 11:23:00,,0829.2,5.01,0.00,29.8,27.7,00.0,38.7,31.5,24.5,0000.0,0008.93,0005.92,0005.56
2022-08-01 11:24:00,,0829.3,5.01,0.00,29.7,27.8,00.0,38.6,31.5,24.4,0000.0,0008.97,0005.95,0005.56
2022-08-01 11:25:00,,0829.3,4.99,0.00,29.7,27.9,00.0,38.6,31.5,24.4,0000.0,0008.91,0005.94,0005.55
2022-08-01 11:26:00,,0829.2,5.00,0.00,29.7,28.1,00.0,38.6,31.5,24.3,0000.0,0008.93,0005.92,0005.53
2022-08-01 11:27:00,,0829.2,5.00,0.00,29.7,28.2,00.0,38.6,31.6,24.3,0000.0,0008.84,0005.89,0005.53
2022-08-01 11:28:00,,0829.3,4.99,0.00,29.7,28.3,00.0,38.6,31.6,24.3,0000.0,0008.80,0005.90,0005.53
2022-08-01 11:29:00,,0829.2,5.01,0.00,29.7,28.4,00.0,38.6,31.6,24.3,0000.0,0008.86,0005.91,0005.54
2022-08-01 11:30:00,,0829.2,5.00,0.00,29.8,28.4,00.0,38.6,31.7,24.2,0000.0,0009.44,0005.94,0005.56
2022-08-01 11:31:00,,0829.1,5.01,0.00,29.8,28.5,00.0,38.6,31.7,24.1,0000.0,0010.64,0006.00,0005.58
2022-08-01 11:32:00,,0829.1,4.99,0.00,29.8,28.6,00.0,38.6,31.7,24.0,0000.0,0010.52,0006.03,0005.60
2022-08-01 11:33:00,,0829.1,5.00,0.00,29.8,28.6,00.0,38.6,31.7,24.1,0000.0,0010.50,0006.04,0005.61
2022-08-01 11:34:00,,0829.1,5.00,0.00,29.8,28.7,00.0,38.6,31.7,24.1,0000.0,0010.68,0006.07,0005.62
2022-08-01 11:35:00,,0829.1,5.00,0.00,29.8,28.7,00.0,38.6,31.8,24.0,0000.0,0010.87,0006.06,0005.64
2022-08-01 11:36:00,,0829.1,4.99,0.00,29.9,28.8,00.0,38.6,31.7,24.0,0000.0,0011.29,0006.03,0005.64
2022-08-01 11:37:00,,0829.1,5.01,0.00,29.9,28.8,00.0,38.6,31.7,24.0,0000.0,0011.63,0006.03,0005.65
2022-08-01 11:38:00,,0829.1,4.99,0.00,29.9,28.8,00.0,38.6,31.8,23.9,0000.0,0011.87,0006.05,0005.65
2022-08-01 11:39:00,,0829.1,5.01,0.00,29.9,28.9,00.0,38.7,31.8,23.9,0000.0,0011.83,0006.04,0005.65
2022-08-01 11:40:00,,0829.1,5.00,0.00,29.9,28.9,00.0,38.7,31.9,23.9,0000.0,0012.07,0006.03,0005.65
2022-08-01 11:41:00,,0829.1,5.01,0.00,29.9,28.9,00.0,38.7,31.9,23.9,0000.0,0011.50,0006.02,0005.64
2022-08-01 11:42:00,,0829.1,4.99,0.00,30.0,29.0,00.0,38.7,31.9,23.9,0000.0,0010.32,0005.97,0005.63
2022-08-01 11:43:00,,0829.0,5.01,0.00,30.0,29.0,00.0,38.7,31.9,24.3,0000.0,0010.22,0005.91,0005.59
2022-08-01 11:44:00,,0829.1,4.99,0.00,30.0,29.0,00.0,38.7,32.0,24.0,0000.0,0010.32,0005.87,0005.57
2022-08-01 11:45:00,,0829.0,5.01,0.00,30.0,29.0,00.0,38.8,32.0,23.9,0000.0,0010.01,0005.85,0005.56
2022-08-01 11:46:00,,0829.1,4.99,0.00,30.0,29.1,00.0,38.8,32.0,23.9,0000.0,0009.81,0005.86,0005.55
2022-08-01 11:47:00,,0829.1,5.00,0.00,30.1,29.1,00.0,38.8,32.0,23.8,0000.0,0009.41,0005.88,0005.55
2022-08-01 11:48:00,,0829.1,5.00,0.00,30.1,29.1,00.0,38.8,32.0,23.8,0000.0,0009.11,0005.89,0005.54
2022-08-01 11:49:00,,0829.1,5.00,0.00,30.1,28.6,00.0,38.8,31.9,23.8,0000.0,0008.69,0005.86,0005.53
2022-08-01 11:50:00,,0829.0,5.00,0.00,30.0,27.8,00.0,38.8,31.7,24.0,0000.0,0008.68,0005.85,0005.52
2022-08-01 11:51:00,,0829.0,4.99,0.00,30.0,27.6,00.0,38.7,31.6,24.0,0000.0,0008.45,0005.87,0005.52
2022-08-01 11:52:00,,0829.0,5.00,0.00,29.8,27.5,00.0,38.7,31.5,24.1,0000.0,0008.67,0005.86,0005.52
2022-08-01 11:53:00,,0829.0,5.01,0.00,29.8,27.6,00.0,38.7,31.5,24.2,0000.0,0008.73,0005.87,0005.50
2022-08-01 11:54:00,,0829.0,4.99,0.00,29.8,27.7,00.0,38.6,31.5,24.2,0000.0,0008.73,0005.89,0005.52
2022-08-01 11:55:00,,0828.9,5.00,0.00,29.7,27.9,00.0,38.6,31.5,24.4,0000.0,0008.62,0005.92,0005.54
2022-08-01 11:56:00,,0828.9,5.00,0.00,29.7,28.0,00.0,38.6,31.5,24.6,0000.0,0009.00,0005.94,0005.58
2022-08-01 11:57:00,,0828.9,5.01,0.00,29.7,28.1,00.0,38.6,31.6,24.5,0000.0,0009.01,0005.96,0005.61
2022-08-01 11:58:00,,0828.9,5.00,0.00,29.7,28.2,00.0,38.6,31.6,24.3,0000.0,0008.98,0005.96,0005.62
2022-08-01 11:59:00,,0828.9,4.99,0.00,29.8,28.3,00.0,38.6,31.6,24.2,0000.0,0009.03,0005.95,0005.61
